Tracking 28790 objects as of 19-Apr-2024
HD Live streaming from Space Station
objects crossing your sky now

FENGYUN 1C DEB

Track FENGYUN 1C DEB now!
10-day predictions


NORAD ID: 33740
Int'l Code: 1999-025DJD
Perigee: 858.8 km
Apogee: 862.5 km
Inclination: 98.7 °
Period: 102.0 minutes
Semi major axis: 7231 km
RCS: 0.0016 m2 (small)
Launch date: May 10, 1999
Source: People's Republic of China (PRC)
Launch site: Taiyaun Space Center, China (TSC)

Note: This is SATELLITE DEBRIS
Your satellite tracking list
Your tracking list is empty




NASA's NSSDC Master Catalog

Two Line Element Set (TLE):
1 33740U 99025DJD 24108.85870254  .00000608  00000-0  35740-3 0  9992
2 33740  98.7243 133.3044 0002599  81.7799 278.3667 14.11714631816245
Source of the keplerian elements: AFSPC